Weather in Sosnovka

Russia / Tyumen Oblast     56°32′27″N   66°55′17″E
temp.,
°C
wind,
m/s
gust,
m/s
humid.,
%
clouds,
%
prec.,
mm/h
press.,
hPa
HPBL,
m
28 september, tue
tue2823:00+5e71262100 0.0 10241128
02:00+4ene71267100 0.0 1024861
05:00+2ene714745 0.1 1023595
08:00+5ene81257100 0.0 10231420
11:00+6ene81150100 0.0 10221524
14:00+8ene81041100 0.0 10201739
17:00+7ne71055100 0.0 10201332
20:00+5ne61269100 0.1 1020804
29 september, wed
wed2923:00+5ne61171100 0.1 1020494
02:00+3nne5118199 0.0 1020301
05:00+2nne51193100 0.0 1021261
08:00+3nne5118559 0.0 1021400
11:00+6nne676199 0.0 1021950
14:00+8nne6748100 0.0 10211640
17:00+7nne6857100 0.0 10221103
20:00+5n596599 0.0 1023655
30 september, thu
thu3023:00+4nne4771100 0.0 1023602
02:00+4n367198 0.0 1023410
05:00+1nnw368836 0.0 1024126
08:00+2nnw368468 0.0 1024239
11:00+6nnw45595 0.0 1024907
14:00+8nw55455 0.0 10231349
17:00+8nw46455 0.0 1022767
20:00+3wnw35580 0.0 102260
1 october, fri
fri123:00+2w356418 0.0 102278
02:00+1w4868100 0.0 1021141
05:00+2w4979100 0.0 1021264
08:00+3w4893100 0.4 1021349
11:00+4nnw3796100 0.6 1022564
14:00+7n465847 0.1 10231283
17:00+6n47548 0.1 1025692
20:00+1nne37795 0.0 1027137
2 october, sat
sat223:000nne22835 0.0 102912
02:00−1wnw11856 0.0 102910
05:00−2w228813 0.0 103018
08:00−1wsw2481100 0.0 1031105
11:00+5wsw34575 0.0 1031711
14:00+8wsw564478 0.0 10291189
17:00+7w4746100 0.0 1028315
20:00+3sw476121 0.0 1028108